To NAV CANADA Home Page Login to a new session Search on AWWS site Feedback and Comments Disclaimer Vers la page française équivalente Tips FAQ What's new on the site To the Forecasts and Observations / NOTAM section To "File a Flight Plan" website Publications and other links Update of the User's profile FIC Telephone Numbers My Weather Data Folder Route Weather Data Regional Weather Data Local Weather Data To the Forecasts and Observations / NOTAM section
Request Generated 01/17/2017 at 04:48:44 UTC . Weather information available at that time is displayed.

METAR/TAF

PAULATUK/PAULATUK (NORA ALIQATCHIALUK RUBEN)/NT    

LWIS CYPC 170400Z AUTO 10004KT M30/M34 A2942=
LWIS CYPC 170300Z AUTO 10002KT M29/M33 A2941=
LWIS CYPC 170200Z AUTO 00000KT M29/M33 A2942=

*** REMARK        : Forecast period has ended; this was the last TAF issued
*** REMARQUE : La période de prévision est échue; ceci était le dernier TAF qui a été émis
TAF CYPC 161838Z 1619/1624 VRB03KT P6SM BKN080
RMK NXT FCST WILL BE ISSUED AT 171545Z=
Your time UTC time
Weather data provided by Environment Canada and NAV CANADA